DateTimeUTC,F1_A11,F1_S11,BsB_S11,BsG_S11,BsR_S11,BbsB_S11,BbsG_S11,BbsR_S11,BaB_A11,BaG_A11,BaR_A11,Tu_S11,T_S11,Uu_S11,U_S11,P_S11,T1_A11
2021-08-21T01:00:00Z,00000200,20000000,,,,,,,0000.17,-000.15,-000.36,18.4,25.4,05.4,03.5,0676.1,31.0
2021-08-21T01:01:00Z,00000200,20000000,,,,,,,-000.26,-000.19,0000.29,18.3,25.4,05.4,03.5,0676.1,31.0
2021-08-21T01:02:00Z,00000200,20000000,,,,,,,0000.14,0000.28,-000.23,18.3,25.4,05.4,03.5,0676.1,31.0
2021-08-21T01:03:00Z,00000200,60000000,,,,,,,-000.12,0000.12,0000.50,18.3,25.4,05.4,03.5,0676.1,31.0
2021-08-21T01:04:00Z,00000200,40000000,0000.55,0000.61,0000.55,-000.36,-000.16,0000.07,0000.73,0000.17,-000.26,18.5,25.2,05.4,03.6,0677.0,31.0
2021-08-21T01:05:00Z,00000200,00000000,0000.85,0000.71,0000.22,-000.26,0000.17,0000.04,-000.43,0000.08,0000.17,18.5,25.2,05.5,03.7,0677.1,31.0
2021-08-21T01:06:00Z,00000200,00000000,-000.01,0000.49,0000.29,-000.27,0000.19,-000.37,0000.57,-000.17,0000.22,18.6,25.1,05.5,03.7,0677.1,31.0
2021-08-21T01:07:00Z,00000200,00000000,0000.07,0000.51,0000.46,-000.34,-000.10,0000.05,-000.22,0000.62,0000.13,18.6,25.1,05.5,03.7,0677.1,31.0
2021-08-21T01:08:00Z,00000200,00000000,0000.28,0000.38,0000.12,0000.09,-000.04,-000.32,0000.44,0000.05,0000.06,18.6,25.1,05.5,03.7,0677.1,31.0
2021-08-21T01:09:00Z,00000200,00000000,0000.19,0000.36,0000.48,-000.18,0000.05,-000.14,0000.04,0000.19,0000.17,18.5,25.1,05.5,03.7,0677.1,31.0
2021-08-21T01:10:00Z,00000200,00000000,0000.34,0000.46,0000.48,-000.04,0000.26,0000.08,0000.36,0000.47,0000.44,18.5,25.1,05.6,03.7,0677.1,31.0
2021-08-21T01:11:00Z,00000200,00000000,0000.28,0000.70,0000.04,-000.11,0000.19,0000.15,0000.36,-000.09,0000.19,18.5,25.1,05.5,03.7,0677.1,31.0
2021-08-21T01:12:00Z,00000200,00000000,0000.23,0000.62,0000.33,0000.46,0000.06,0000.08,0000.36,0000.38,0000.12,18.6,25.1,05.6,03.8,0677.1,31.0
2021-08-21T01:13:00Z,00000200,00000000,0000.61,0000.44,0000.43,0000.10,0000.20,-000.17,0000.28,0000.43,0000.28,18.7,25.2,05.5,03.7,0677.1,31.0
2021-08-21T01:14:00Z,00000200,00000000,0000.56,0000.61,0000.49,-000.13,-000.14,0000.03,0000.12,0000.02,0000.19,18.8,25.2,05.5,03.7,0677.1,31.0
2021-08-21T01:15:00Z,00000200,00000000,0000.69,0000.45,0000.45,0000.35,0000.22,0000.07,0000.40,0000.51,0000.09,18.8,25.2,05.5,03.7,0677.1,31.0
2021-08-21T01:16:00Z,00000200,00000000,0001.04,0000.47,0000.51,0000.26,-000.08,0000.26,-000.32,-000.14,-000.07,18.9,25.2,05.5,03.7,0677.1,31.0
2021-08-21T01:17:00Z,00000200,00000000,0001.32,0000.38,0000.63,-000.56,-000.02,0000.06,0000.30,-000.16,-000.07,18.8,25.2,05.4,03.7,0677.1,31.0
2021-08-21T01:18:00Z,00000200,00000000,0000.96,0000.54,0000.58,-000.11,0000.08,-000.35,0000.04,0000.47,0000.22,18.8,25.2,05.4,03.7,0677.1,31.0
2021-08-21T01:19:00Z,00000200,00000000,0001.01,0000.44,0000.50,0000.32,0000.07,0000.33,-000.04,-000.34,-000.10,18.8,25.2,05.4,03.7,0677.1,31.0
2021-08-21T01:20:00Z,00000200,00000000,0001.01,0000.55,0000.40,-000.21,-000.21,0000.18,0000.32,0000.47,0000.05,18.8,25.2,05.3,03.6,0677.1,31.0
2021-08-21T01:21:00Z,00000200,00000000,0000.33,0000.54,0000.05,-000.35,0000.13,-000.14,0000.36,-000.17,0000.20,18.8,25.2,05.3,03.6,0677.1,31.0
2021-08-21T01:22:00Z,00000200,00000000,0001.03,0000.83,0000.47,0000.25,0000.26,0000.00,0000.07,0000.11,0000.14,18.7,25.2,05.4,03.6,0677.1,31.0
2021-08-21T01:23:00Z,00000200,00000000,0001.73,0000.42,0000.32,-000.50,0000.05,0000.24,-000.21,0000.08,0000.12,18.7,25.2,05.4,03.6,0677.1,31.0
2021-08-21T01:24:00Z,00000200,00000000,0000.63,0000.81,0000.55,-000.46,0000.17,0000.21,0000.51,0000.49,0000.29,18.7,25.2,05.4,03.6,0677.1,31.0
2021-08-21T01:25:00Z,00000200,00000000,0000.62,0000.63,0000.93,0000.71,0000.29,0000.31,0000.02,0000.13,-000.01,18.7,25.2,05.3,03.6,0677.1,31.0
2021-08-21T01:26:00Z,00000200,00000000,0000.74,0000.88,0000.70,-000.17,-000.09,-000.01,0000.13,0000.18,0000.12,18.7,25.2,05.2,03.5,0677.1,31.0
2021-08-21T01:27:00Z,00000200,00000000,0002.24,0000.77,0000.62,-000.50,-000.06,-000.03,0000.42,0000.01,-000.05,18.7,25.2,05.3,03.6,0677.1,31.0
2021-08-21T01:28:00Z,00000200,00000000,0000.66,0000.80,0000.83,-000.07,0000.03,0000.15,-000.04,0000.09,0000.09,18.7,25.2,05.4,03.6,0677.1,31.0
2021-08-21T01:29:00Z,00000200,00000000,0000.77,0000.84,0000.70,0000.02,0000.10,0000.01,0000.20,0000.16,0000.46,18.7,25.1,05.4,03.6,0677.1,31.0
2021-08-21T01:30:00Z,00000200,00000000,0000.35,0000.80,0000.77,-000.47,0000.08,0000.19,0000.41,0000.44,-000.03,18.7,25.2,05.2,03.5,0677.1,31.0
2021-08-21T01:31:00Z,00000200,00000000,0001.38,0000.79,0000.73,0000.02,0000.14,0000.05,0000.22,0000.37,0000.23,18.7,25.2,05.3,03.6,0677.1,31.0
2021-08-21T01:32:00Z,00000200,00000000,0001.56,0000.75,0000.50,0000.55,0000.07,0000.25,0000.03,-000.18,-000.05,18.7,25.2,05.3,03.6,0677.0,31.0
2021-08-21T01:33:00Z,00000200,00000000,0001.02,0000.56,0000.38,0000.16,-000.11,0000.07,0000.39,0000.15,0000.40,18.7,25.1,05.2,03.5,0677.1,31.0
2021-08-21T01:34:00Z,00000200,00000000,0000.81,0000.89,0000.65,-000.17,-000.01,-000.14,0000.04,0000.49,0000.15,18.6,25.1,05.2,03.5,0677.0,31.0
2021-08-21T01:35:00Z,00000200,00000000,0001.25,0001.23,0000.34,0000.21,0000.44,-000.11,0000.43,0000.29,0000.09,18.7,25.1,05.1,03.4,0677.0,31.0
2021-08-21T01:36:00Z,00000200,00000000,0001.28,0000.83,0000.74,0000.99,0000.31,0000.03,0000.20,0000.16,0000.09,18.6,25.1,05.2,03.5,0677.0,31.0
2021-08-21T01:37:00Z,00000200,00000000,0000.98,0000.76,0000.21,0000.37,0000.24,-000.44,-000.04,0000.17,0000.34,18.6,25.1,05.1,03.4,0677.1,31.0
2021-08-21T01:38:00Z,00000200,00000000,0000.68,0000.86,0000.60,0000.15,0000.06,0000.17,0000.15,-000.01,-000.26,18.6,25.1,05.1,03.4,0677.1,31.0
2021-08-21T01:39:00Z,00000200,00000000,0000.81,0000.65,0000.74,-000.30,0000.16,-000.01,0000.40,0000.31,0000.45,18.6,25.1,05.1,03.4,0677.1,31.0
2021-08-21T01:40:00Z,00000200,00000000,0001.43,0000.57,0000.46,0000.68,0000.17,-000.12,-000.13,-000.07,0000.01,18.6,25.1,05.0,03.4,0677.1,31.0
2021-08-21T01:41:00Z,00000200,00000000,0001.35,0000.31,0000.28,0000.23,0000.22,0000.01,0000.16,0000.32,0000.34,18.6,25.1,05.0,03.4,0677.1,31.0
2021-08-21T01:42:00Z,00000200,00000000,0000.99,0000.57,0000.47,0000.10,0000.31,0000.05,0000.24,-000.00,0000.09,18.6,25.1,05.1,03.4,0677.1,31.0
2021-08-21T01:43:00Z,00000200,00000000,0000.94,0000.52,0000.50,0000.16,-000.08,0000.07,-000.02,0000.34,-000.07,18.6,25.1,05.0,03.4,0677.1,31.0
2021-08-21T01:44:00Z,00000200,00000000,0000.83,0000.83,0000.26,-000.18,0000.33,-000.19,0000.35,-000.32,-000.20,18.6,25.1,04.9,03.3,0677.0,31.0
2021-08-21T01:45:00Z,00000200,00000000,0001.68,0000.47,0000.35,0000.53,0000.26,-000.20,0000.32,0000.46,0000.64,18.6,25.1,04.9,03.3,0677.0,31.0
2021-08-21T01:46:00Z,00000200,00000000,0001.64,0000.63,0000.64,0000.19,0000.06,-000.24,0000.12,-000.07,-000.12,18.6,25.1,04.9,03.3,0677.0,31.0
2021-08-21T01:47:00Z,00000200,00000000,0000.25,0000.48,0000.64,0000.06,0000.04,0000.06,0000.20,0000.27,-000.22,18.6,25.1,04.8,03.2,0677.0,31.0
2021-08-21T01:48:00Z,00000200,00000000,0000.72,0000.38,0000.35,0000.02,0000.09,0000.24,0000.07,0000.15,0000.39,18.6,25.1,04.7,03.1,0677.0,31.0
2021-08-21T01:49:00Z,00000200,00000000,0000.77,0000.23,0000.15,0000.68,0000.09,-000.15,-000.03,-000.10,0000.04,18.5,25.1,04.6,03.1,0677.0,31.0
2021-08-21T01:50:00Z,00000200,00000000,0000.73,0000.57,0000.18,0000.53,-000.14,-000.07,-000.04,0000.06,0000.13,18.5,25.1,04.7,03.2,0677.0,31.0
2021-08-21T01:51:00Z,00000200,00000000,0000.11,0000.50,0000.34,-000.15,-000.20,0000.14,0000.09,0000.22,0000.04,18.5,25.1,04.7,03.1,0677.0,31.0
2021-08-21T01:52:00Z,00000200,00000000,0000.93,0000.77,0000.14,0000.03,0000.09,-000.12,0000.24,0000.03,0000.32,18.5,25.1,04.7,03.1,0677.0,31.0
2021-08-21T01:53:00Z,00000200,00000000,0001.33,0000.78,0000.36,0000.17,0000.15,-000.27,0000.20,0000.35,-000.23,18.5,25.0,04.7,03.1,0677.0,31.0
2021-08-21T01:54:00Z,00000200,00000000,0001.14,0000.60,0000.47,-000.31,-000.01,-000.13,0000.05,-000.09,0000.33,18.5,25.0,04.6,03.1,0677.0,31.0
2021-08-21T01:55:00Z,00000200,00000000,0000.86,0000.76,0000.39,-000.09,0000.07,-000.21,0000.16,-000.00,-000.17,18.5,25.0,04.5,03.0,0677.0,31.0
2021-08-21T01:56:00Z,00000200,00000000,0000.08,0000.46,0000.37,0000.42,0000.19,-000.26,0000.31,0001.00,0000.50,18.5,25.0,04.5,03.0,0677.0,31.0
2021-08-21T01:57:00Z,00000200,40000000,,,,,,,0000.77,0000.18,0000.39,18.6,25.1,04.8,03.2,0677.0,31.0
2021-08-21T01:58:00Z,00000200,60000000,,,,,,,-000.29,-000.22,-000.20,18.4,25.2,04.6,03.0,0676.1,31.0
2021-08-21T01:59:00Z,00000200,20000000,,,,,,,-000.15,-000.05,0000.05,18.4,25.3,04.6,03.0,0676.0,31.0
